To NAV CANADA Home Page Login to a new session Search on AWWS site Feedback and Comments Disclaimer Vers la page française équivalente Tips FAQ What's new on the site To the Forecasts and Observations / NOTAM section To "File a Flight Plan" website Publications and other links Update of the User's profile FIC Telephone Numbers My Weather Data Folder Route Weather Data Regional Weather Data Local Weather Data To the Forecasts and Observations / NOTAM section
Request Generated 10/13/2015 at 08:52:00 UTC . Weather information available at that time is displayed.



LWIS CYSL 130800Z AUTO 14004KT 09/08 A2969=
LWIS CYSL 130700Z AUTO 15006KT 10/08 A2970=
LWIS CYSL 130600Z AUTO 14008KT 10/09 A2972=

CYSL - No TAF is issued for this station

Your time UTC time
Weather data provided by Environment Canada and NAV CANADA